[[{"header":{"parameterUnit":"m.s-1","parameterCategory":1,"la1":30.2991,"la2":30.254,"lo1":-89.0895,"lo2":-89.0444,"dy":0.0017,"dx":0.0017,"nx":28,"ny":28,"refTime":"2023-10-13T09:00:00:Z","depth":0,"parameterNumber":2,"parameterNumberName":"U-component_of_WINDS"},"data":[0,0,0,0,0,0,0,0,0,0,0,0,0,0,0,0,0,0,0,0,0,0,0,0,0,0,0,0,0,0,0,0,0,0,0,0,0,0,0,0,0,0,0,0,0,0,0,0,0,0,0,0,0,0,0,0,0,0,-2.4395,-2.4395,0,-2.4385,-2.4385,-2.4385,-2.4289,-2.4286,-2.4284,-2.4282,-2.4274,-2.4276,-2.4278,0,0,0,0,0,0,0,0,0,0,0,0,0,-2.4331,-2.4333,-2.4395,-2.4395,-2.4395,-2.4385,-2.4385,-2.4385,-2.4289,-2.4286,-2.4283,-2.4281,-2.4273,-2.4276,-2.4278,0,0,0,0,0,0,0,0,0,0,0,0,0,-2.4344,-2.4333,-2.4395,-2.4346,-2.4341,-2.4385,-2.4385,-2.4385,-2.429,-2.4286,-2.4283,-2.4279,-2.4273,-2.4276,-2.4279,-2.437,0,0,-2.4288,-2.4289,0,0,0,0,0,0,0,0,-2.4343,-2.4347,-2.4353,-2.4349,-2.4344,-2.4334,-2.436,-2.438,-2.4291,-2.4309,-2.4282,-2.4277,-2.4297,-2.4298,-2.4304,-2.437,-2.4369,-2.4288,-2.429,-2.4291,-2.4292,0,0,0,0,0,0,0,-2.4343,-2.4346,-2.4391,-2.4353,-2.4348,-2.4324,-2.4322,-2.4363,-2.4324,-2.4307,-2.43,-2.4301,-2.4294,-2.4302,-2.4303,-2.4369,-2.4288,-2.4291,-2.4293,-2.4294,-2.4509,-2.4512,0,0,0,0,0,0,-2.4348,-2.4346,-2.4391,-2.4391,-2.4335,-2.4328,-2.4326,-2.4341,-2.4323,-2.4317,-2.4304,-2.4296,-2.4298,-2.43,-2.4303,-2.4408,-2.4291,-2.4294,-2.4296,-2.4505,-2.451,-2.4514,0,0,0,0,0,0,-2.4347,-2.4353,-2.4392,-2.4367,-2.437,-2.4333,-2.4351,-2.4343,-2.435,-2.432,-2.4313,-2.4318,-2.4295,-2.4298,-2.4354,-2.4407,-2.4296,-2.4298,-2.45,-2.4506,-2.4512,-2.4621,0,0,0,0,0,0,-2.4346,-2.4354,-2.4388,-2.4368,-2.4371,-2.4443,-2.4355,-2.4345,-2.4356,-2.4346,-2.4332,-2.4326,-2.4293,-2.435,-2.4357,-2.4409,-2.4301,-2.4495,-2.4503,-2.451,-2.4612,-2.463,-2.4644,0,0,0,0,0,-2.4344,-2.4419,-2.439,-2.4396,-2.4413,-2.4446,-2.4448,-2.4407,-2.436,-2.4394,-2.4375,-2.4327,-2.44,-2.4356,-2.4363,-2.4417,-2.4492,-2.4501,-2.4509,-2.4605,-2.4626,-2.4644,0,0,0,0,0,0,-2.4447,-2.4416,-2.4383,-2.4454,-2.4453,-2.443,-2.4472,-2.4431,-2.4444,-2.4434,-2.4384,-2.4381,-2.4445,-2.4436,-2.4388,-2.4505,-2.4437,-2.4448,-2.4508,-2.4528,-2.4543,-2.4544,-2.4303,0,0,0,0,0,-2.4478,-2.4507,-2.4478,-2.4544,-2.4545,-2.4509,-2.4521,-2.449,-2.4488,-2.4487,-2.4471,-2.4472,-2.4494,-2.451,-2.453,-2.461,-2.4606,-2.4651,-2.4667,-2.468,-2.469,-2.4732,-2.4752,-2.4542,-2.4542,-2.4542,0,0,-2.4542,-2.4529,-2.455,-2.4564,-2.456,-2.4591,-2.4509,-2.4546,-2.4569,-2.4493,-2.4544,-2.4533,-2.4529,-2.4598,-2.4627,-2.4593,-2.4747,-2.4691,-2.4702,-2.4705,-2.4743,-2.4763,-2.4781,-2.4548,-2.4547,-2.4546,0,0,-2.4675,-2.4668,-2.4722,-2.4719,-2.4713,-2.4688,-2.4701,-2.4684,-2.4673,-2.4724,-2.4667,-2.4694,-2.4734,-2.4734,-2.4739,-2.4872,-2.4828,-2.4879,-2.4963,-2.5005,-2.5021,-2.5036,-2.5083,-2.5101,-2.4889,-2.489,-2.489,0,-2.4756,-2.4801,-2.4755,-2.4795,-2.4802,-2.4734,-2.4788,-2.4788,-2.479,-2.4797,-2.4758,-2.4807,-2.48,-2.4867,-2.4899,-2.4906,-2.4919,-2.4881,-2.5023,-2.5037,-2.5049,-2.5094,-2.5112,-2.4896,-2.4895,-2.4894,-2.4894,0,-2.49,-2.4932,-2.4976,-2.4978,-2.4991,-2.5038,-2.4999,-2.5018,-2.4985,-2.4965,-2.5017,-2.5006,-2.5021,-2.5035,-2.5004,-2.5098,-2.5077,-2.5031,-2.4963,-2.5076,-2.5117,-2.5134,-2.4905,-2.4903,-2.4901,-2.4899,0,0,-2.5099,-2.5074,-2.5091,-2.5091,-2.5079,-2.5103,-2.5147,-2.5162,-2.5179,-2.5182,-2.5218,-2.5253,-2.5211,-2.5217,-2.5185,-2.5221,-2.5327,-2.5171,-2.517,-2.52,-2.543,-2.5465,-2.5485,-2.5298,-2.5301,-2.5303,-2.543,0,-2.5227,-2.53,-2.5259,-2.5338,-2.5367,-2.5302,-2.5341,-2.5338,-2.532,-2.5342,-2.5322,-2.5348,-2.529,-2.5293,-2.5326,-2.5307,-2.5372,-2.5297,-2.5331,-2.5333,-2.5334,-2.5507,-2.5543,-2.5664,-2.5446,-2.5449,-2.5451,0,-2.5386,-2.5395,-2.5477,-2.5459,-2.547,-2.5505,-2.5515,-2.5537,-2.5533,-2.5517,-2.5524,-2.5483,-2.5525,-2.5457,-2.5515,-2.5465,-2.5476,-2.5468,-2.5472,-2.5474,-2.5399,-2.5513,-2.5702,-2.572,-2.5476,-2.5474,-2.5472,0,-2.5523,-2.5556,-2.5608,-2.561,-2.5591,-2.5618,-2.5611,-2.5603,-2.5614,-2.5623,-2.563,-2.5644,-2.5652,-2.5664,-2.5628,-2.5582,-2.5691,-2.562,-2.5679,-2.5681,-2.5706,-2.5705,-2.5899,-2.5713,-2.5713,-2.5712,-2.5712,0,-2.567,-2.5723,-2.5669,-2.5702,-2.5759,-2.5712,-2.577,-2.5756,-2.575,-2.5779,-2.5724,-2.5753,-2.5704,-2.5728,-2.57,-2.5752,-2.5756,-2.5745,-2.5737,-2.575,-2.5751,-2.5757,-2.5748,-2.5717,-2.5716,-2.5715,-2.5714,0,-2.5833,-2.5799,-2.5852,-2.583,-2.5825,-2.5868,-2.5849,-2.5878,-2.5856,-2.5894,-2.59,-2.5866,-2.5891,-2.5856,-2.5878,-2.586,-2.5931,-2.591,-2.5932,-2.5927,-2.5988,-2.5983,-2.6193,-2.6218,-2.6016,-2.6018,-2.602,0,-2.5929,-2.5968,-2.5949,-2.5964,-2.5961,-2.5986,-2.5997,-2.5952,-2.5966,-2.5963,-2.5994,-2.6014,-2.6028,-2.6071,-2.6049,-2.6065,-2.6045,-2.6117,-2.6047,-2.6059,-2.6046,-2.6044,-2.6048,-2.6132,-2.6134,-2.6136,-2.6138,0,-2.6104,-2.6085,-2.6103,-2.6115,-2.6129,-2.6136,-2.614,-2.6155,-2.6108,-2.6127,-2.6151,-2.6162,-2.6184,-2.6205,-2.6216,-2.6209,-2.6166,-2.616,-2.6174,-2.6188,-2.62,-2.6194,-2.5972,-2.6155,-2.6154,-2.6152,-2.6151,-2.6151,-2.6236,-2.6268,-2.6259,-2.628,-2.6278,-2.6282,-2.6309,-2.6289,-2.6309,-2.6323,-2.6295,-2.6327,-2.6321,-2.6331,-2.6329,-2.6353,-2.6322,-2.6343,-2.6349,-2.6355,-2.6364,-2.6196,-2.6355,-2.6355,-2.6354,-2.6354,-2.6353,0,-2.6409,-2.64,-2.6419,-2.6425,-2.6442,-2.6399,-2.64,-2.6417,-2.6446,-2.6444,-2.6458,-2.6487,-2.6507,-2.6486,-2.6502,-2.6526,-2.6506,-2.6531,-2.6529,-2.6529,-2.6391,-2.6377,-2.6547,-2.6547,-2.6547,-2.6547,-2.6547,-2.6547,-2.65,-2.6551,-2.6531,-2.658,-2.657,-2.66,-2.6605,-2.6608,-2.6606,-2.664,-2.6656,-2.6642,-2.6632,-2.6647,-2.6664,-2.6657,-2.6666,-2.6698,-2.6685,-2.6557,-2.6538,-2.652,-2.6507,-2.6701,-2.6701,-2.682,-2.6821,-2.6822]},{"header":{"parameterUnit":"m.s-1","parameterCategory":1,"la1":30.2991,"la2":30.254,"lo1":-89.0895,"lo2":-89.0444,"dy":0.0017,"dx":0.0017,"nx":28,"ny":28,"refTime":"2023-10-13T09:00:00:Z","depth":0,"parameterNumber":3,"parameterNumberName":"V-component_of_WINDS"},"data":[0,0,0,0,0,0,0,0,0,0,0,0,0,0,0,0,0,0,0,0,0,0,0,0,0,0,0,0,0,0,0,0,0,0,0,0,0,0,0,0,0,0,0,0,0,0,0,0,0,0,0,0,0,0,0,0,0,0,-3.1575,-3.1576,0,-3.16,-3.16,-3.16,-3.1545,-3.1543,-3.1541,-3.1539,-3.1562,-3.1564,-3.1566,0,0,0,0,0,0,0,0,0,0,0,0,0,-3.1478,-3.148,-3.1575,-3.1576,-3.1576,-3.16,-3.16,-3.16,-3.1545,-3.1543,-3.1541,-3.1539,-3.1561,-3.1564,-3.1567,0,0,0,0,0,0,0,0,0,0,0,0,0,-3.1513,-3.1481,-3.1575,-3.1551,-3.1549,-3.16,-3.16,-3.1601,-3.1545,-3.1543,-3.154,-3.1538,-3.156,-3.1564,-3.1567,-3.1641,0,0,-3.1577,-3.1579,0,0,0,0,0,0,0,0,-3.1511,-3.1517,-3.1555,-3.1553,-3.1551,-3.1567,-3.1574,-3.1614,-3.1546,-3.1547,-3.1539,-3.1536,-3.1566,-3.1568,-3.1579,-3.1642,-3.1643,-3.1578,-3.158,-3.1581,-3.1582,0,0,0,0,0,0,0,-3.1509,-3.1515,-3.1585,-3.1555,-3.1553,-3.1538,-3.154,-3.1581,-3.1571,-3.1547,-3.1543,-3.1546,-3.1564,-3.1576,-3.1579,-3.1643,-3.1578,-3.1581,-3.1583,-3.1584,-3.1768,-3.1771,0,0,0,0,0,0,-3.151,-3.1514,-3.1584,-3.1586,-3.1524,-3.1542,-3.1545,-3.1564,-3.157,-3.1569,-3.1549,-3.1544,-3.1571,-3.1575,-3.1579,-3.1666,-3.1581,-3.1584,-3.1586,-3.1765,-3.1769,-3.1772,0,0,0,0,0,0,-3.1508,-3.1517,-3.1583,-3.1549,-3.1556,-3.1547,-3.1569,-3.1566,-3.1578,-3.1572,-3.1569,-3.1563,-3.1569,-3.1575,-3.1626,-3.1666,-3.1586,-3.1589,-3.1762,-3.1766,-3.177,-3.184,0,0,0,0,0,0,-3.1505,-3.1516,-3.1545,-3.155,-3.1558,-3.1631,-3.1572,-3.1568,-3.1584,-3.1578,-3.1584,-3.1583,-3.1567,-3.1621,-3.163,-3.1669,-3.1592,-3.1758,-3.1764,-3.1769,-3.1834,-3.1847,-3.1857,0,0,0,0,0,-3.1502,-3.1564,-3.1547,-3.1556,-3.1594,-3.1633,-3.1638,-3.162,-3.1587,-3.1616,-3.1612,-3.1582,-3.166,-3.1627,-3.1636,-3.1677,-3.1756,-3.1762,-3.1768,-3.1829,-3.1844,-3.1857,0,0,0,0,0,0,-3.1563,-3.1564,-3.1545,-3.161,-3.1622,-3.1624,-3.1659,-3.1636,-3.1657,-3.165,-3.1626,-3.1628,-3.1684,-3.1685,-3.1649,-3.1749,-3.1702,-3.1711,-3.1746,-3.176,-3.1771,-3.1769,-3.1594,0,0,0,0,0,-3.1584,-3.1617,-3.1615,-3.1673,-3.168,-3.1669,-3.1685,-3.167,-3.1681,-3.1685,-3.1685,-3.1697,-3.1723,-3.1742,-3.1766,-3.1834,-3.1835,-3.1867,-3.1878,-3.1887,-3.1895,-3.1931,-3.1945,-3.1793,-3.1793,-3.1793,0,0,-3.1628,-3.1632,-3.1654,-3.1685,-3.1692,-3.1726,-3.1673,-3.1711,-3.1735,-3.1691,-3.174,-3.174,-3.1751,-3.1811,-3.1837,-3.1814,-3.1937,-3.1896,-3.1903,-3.1906,-3.1939,-3.1953,-3.1966,-3.1797,-3.1797,-3.1796,0,0,-3.1725,-3.1732,-3.178,-3.1789,-3.1801,-3.1793,-3.1805,-3.181,-3.1808,-3.1857,-3.1825,-3.1853,-3.19,-3.1909,-3.1919,-3.2019,-3.1993,-3.2028,-3.2086,-3.2121,-3.2133,-3.2144,-3.2179,-3.2192,-3.2035,-3.2035,-3.2035,0,-3.1777,-3.1827,-3.1807,-3.1847,-3.1861,-3.1824,-3.1872,-3.1881,-3.19,-3.1911,-3.1884,-3.1942,-3.1947,-3.2008,-3.2033,-3.2043,-3.2055,-3.2027,-3.2133,-3.2143,-3.2153,-3.2186,-3.2199,-3.2039,-3.2039,-3.2039,-3.2038,0,-3.1891,-3.1926,-3.1963,-3.1984,-3.2002,-3.2046,-3.2032,-3.2052,-3.2036,-3.2031,-3.208,-3.2084,-3.2109,-3.2122,-3.2106,-3.2182,-3.2167,-3.2137,-3.209,-3.2172,-3.2203,-3.2215,-3.2045,-3.2044,-3.2043,-3.2042,0,0,-3.2027,-3.2036,-3.205,-3.2058,-3.2069,-3.2095,-3.2137,-3.2161,-3.2179,-3.2194,-3.2228,-3.2268,-3.2241,-3.2253,-3.2238,-3.2268,-3.2347,-3.2235,-3.2235,-3.2255,-3.2429,-3.2451,-3.2466,-3.2329,-3.2331,-3.2333,-3.2428,0,-3.2122,-3.2195,-3.2178,-3.2249,-3.2281,-3.2246,-3.2282,-3.2292,-3.2288,-3.2313,-3.2308,-3.2337,-3.2299,-3.2306,-3.2335,-3.2331,-3.2381,-3.2324,-3.236,-3.2361,-3.2358,-3.2482,-3.2506,-3.2595,-3.244,-3.2442,-3.2443,0,-3.2243,-3.2263,-3.2338,-3.2343,-3.2355,-3.2388,-3.2409,-3.2434,-3.2445,-3.2439,-3.2453,-3.2431,-3.2472,-3.2424,-3.2479,-3.2441,-3.2454,-3.2454,-3.2457,-3.246,-3.2407,-3.2488,-3.2623,-3.2636,-3.2462,-3.2461,-3.2459,0,-3.2334,-3.2379,-3.243,-3.2438,-3.2446,-3.247,-3.2474,-3.2481,-3.2497,-3.2515,-3.2525,-3.2547,-3.2559,-3.2576,-3.2561,-3.2528,-3.2618,-3.2569,-3.2614,-3.2615,-3.2634,-3.2633,-3.2773,-3.2644,-3.2644,-3.2643,-3.2643,0,-3.2442,-3.2489,-3.2471,-3.2502,-3.2553,-3.2533,-3.2584,-3.2584,-3.2591,-3.2621,-3.2591,-3.2619,-3.2597,-3.2623,-3.2611,-3.2658,-3.2664,-3.266,-3.2656,-3.2663,-3.2663,-3.2671,-3.2665,-3.2647,-3.2646,-3.2645,-3.2645,0,-3.2553,-3.2543,-3.2595,-3.2598,-3.26,-3.2637,-3.2639,-3.2667,-3.2661,-3.2699,-3.2707,-3.2697,-3.2726,-3.2712,-3.2742,-3.2734,-3.2795,-3.2783,-3.2792,-3.2788,-3.2834,-3.283,-3.2984,-3.3002,-3.2861,-3.2862,-3.2863,0,-3.2623,-3.2658,-3.2665,-3.2683,-3.2689,-3.2719,-3.2735,-3.2716,-3.2733,-3.2747,-3.2774,-3.2801,-3.2821,-3.2869,-3.2864,-3.2887,-3.2875,-3.2927,-3.2878,-3.2883,-3.2875,-3.2873,-3.2877,-3.2937,-3.2939,-3.294,-3.2941,0,-3.2747,-3.274,-3.2765,-3.2788,-3.2808,-3.2825,-3.2839,-3.2856,-3.2837,-3.2858,-3.2888,-3.2904,-3.2935,-3.2962,-3.2982,-3.2985,-3.296,-3.2957,-3.2968,-3.2975,-3.2979,-3.2977,-3.2818,-3.2953,-3.2952,-3.2951,-3.2951,-3.295,-3.2839,-3.2869,-3.2878,-3.2906,-3.2915,-3.2929,-3.2956,-3.2953,-3.2978,-3.3002,-3.2989,-3.3024,-3.3032,-3.3057,-3.3063,-3.3089,-3.3068,-3.3085,-3.3089,-3.3094,-3.31,-3.2975,-3.3093,-3.3092,-3.3092,-3.3092,-3.3092,0,-3.2962,-3.2966,-3.2992,-3.3014,-3.3036,-3.3011,-3.3025,-3.3045,-3.3077,-3.3087,-3.3108,-3.3142,-3.3167,-3.3164,-3.3187,-3.3209,-3.3198,-3.3216,-3.3214,-3.3215,-3.3117,-3.3105,-3.3224,-3.3224,-3.3224,-3.3224,-3.3224,-3.3224,-3.3028,-3.3077,-3.3071,-3.3124,-3.3127,-3.3162,-3.3172,-3.3184,-3.3193,-3.3232,-3.3254,-3.3252,-3.3256,-3.328,-3.3302,-3.33,-3.331,-3.3332,-3.3326,-3.3235,-3.3222,-3.3209,-3.3197,-3.3334,-3.3334,-3.3421,-3.3422,-3.3422]}]]